| time (UTC) | temp C | wind direction | speed KPH | gust KPH | rain 1hr cm | rain 24hr cm | rain mn cm | humidity % | barometer mb |
| 20260506002604 | 10 | 350 | 8.0 | 24.1 | 0.00 | 0.00 | 0.00 | 81 | 1009.8 |
| 20260506001603 | 10 | 25 | 9.7 | 27.4 | 0.00 | 0.00 | 0.00 | 81 | 1009.5 |
| 20260506001103 | 10 | 38 | 9.7 | 27.4 | 0.00 | 0.00 | 0.00 | 80 | 1009.5 |
| 20260506000604 | 10 | 25 | 9.7 | 20.9 | 0.00 | 0.00 | 0.00 | 80 | 1009.4 |
| 20260506000104 | 10 | 11 | 9.7 | 25.7 | 0.00 | 0.00 | 0.00 | 80 | 1009.5 |
| 20260505235604 | 10 | 40 | 9.7 | 25.7 | 0.00 | 0.00 | 0.00 | 79 | 1009.7 |
| 20260505234103 | 10 | 353 | 12.9 | 22.5 | 0.00 | 0.00 | 0.00 | 78 | 1009.1 |
| 20260505233604 | 11 | 16 | 4.8 | 24.1 | 0.00 | 0.00 | 0.00 | 79 | 1009.2 |
| 20260505233104 | 11 | 21 | 8.0 | 24.1 | 0.00 | 0.00 | 0.00 | 78 | 1009.4 |
| 20260505232603 | 11 | 17 | 12.9 | 24.1 | 0.00 | 0.00 | 0.00 | 78 | 1009.6 |
| 20260505232103 | 11 | 65 | 4.8 | 25.7 | 0.00 | 0.00 | 0.00 | 78 | 1009.8 |
| 20260505231603 | 11 | 59 | 6.4 | 25.7 | 0.00 | 0.00 | 0.00 | 78 | 1009.8 |
| 20260505231103 | 11 | 17 | 9.7 | 25.7 | 0.00 | 0.00 | 0.00 | 78 | 1009.6 |
| 20260505230603 | 11 | 350 | 11.3 | 24.1 | 0.00 | 0.00 | 0.00 | 78 | 1009.4 |
| 20260505225604 | 11 | 6 | 6.4 | 24.1 | 0.00 | 0.00 | 0.00 | 78 | 1008.9 |
| 20260505225104 | 11 | 10 | 9.7 | 20.9 | 0.00 | 0.00 | 0.00 | 77 | 1008.9 |
| 20260505224603 | 11 | 8 | 11.3 | 20.9 | 0.00 | 0.00 | 0.00 | 76 | 1009.0 |
| 20260505224103 | 11 | 5 | 6.4 | 20.9 | 0.00 | 0.00 | 0.00 | 76 | 1008.9 |
| 20260505223604 | 11 | 27 | 6.4 | 20.9 | 0.00 | 0.00 | 0.00 | 76 | 1008.9 |
| 20260505222604 | 11 | 13 | 8.0 | 24.1 | 0.00 | 0.00 | 0.00 | 76 | 1009.0 |
| 20260505221604 | 11 | 32 | 14.5 | 27.4 | 0.00 | 0.00 | 0.00 | 75 | 1008.7 |
| 20260505221103 | 11 | 4 | 11.3 | 33.8 | 0.00 | 0.00 | 0.00 | 76 | 1008.4 |
| 20260505220604 | 12 | 10 | 11.3 | 33.8 | 0.00 | 0.00 | 0.00 | 75 | 1008.6 |
| 20260505220103 | 12 | 11 | 6.4 | 27.4 | 0.00 | 0.00 | 0.00 | 75 | 1008.4 |
| 20260505215104 | 12 | 51 | 12.9 | 32.2 | 0.00 | 0.00 | 0.00 | 75 | 1008.5 |
| 20260505214603 | 12 | 53 | 11.3 | 27.4 | 0.00 | 0.00 | 0.00 | 75 | 1008.3 |
| 20260505213605 | 12 | 20 | 14.5 | 29.0 | 0.00 | 0.00 | 0.00 | 74 | 1007.7 |
| 20260505213105 | 12 | 24 | 12.9 | 29.0 | 0.00 | 0.00 | 0.00 | 74 | 1007.7 |
| 20260505212605 | 12 | 10 | 12.9 | 29.0 | 0.00 | 0.00 | 0.00 | 74 | 1007.6 |
| 20260505212105 | 12 | 3 | 14.5 | 29.0 | 0.00 | 0.00 | 0.00 | 74 | 1007.7 |
| 20260505211606 | 12 | 7 | 16.1 | 29.0 | 0.00 | 0.00 | 0.00 | 74 | 1007.9 |
| 20260505210605 | 12 | 2 | 12.9 | 29.0 | 0.00 | 0.00 | 0.00 | 75 | 1007.6 |
| 20260505210105 | 12 | 29 | 12.9 | 29.0 | 0.00 | 0.00 | 0.00 | 75 | 1007.4 |
| 20260505205605 | 12 | 18 | 11.3 | 35.4 | 0.00 | 0.00 | 0.00 | 75 | 1007.5 |
| 20260505204605 | 12 | 350 | 11.3 | 27.4 | 0.00 | 0.00 | 0.00 | 76 | 1007.4 |
| 20260505204105 | 12 | 23 | 11.3 | 25.7 | 0.00 | 0.00 | 0.00 | 76 | 1007.9 |
| 20260505203606 | 12 | 39 | 8.0 | 25.7 | 0.00 | 0.00 | 0.00 | 76 | 1008.7 |
| 20260505203105 | 12 | 15 | 12.9 | 27.4 | 0.00 | 0.00 | 0.00 | 75 | 1008.6 |
| 20260505202605 | 12 | 16 | 16.1 | 29.0 | 0.00 | 0.00 | 0.00 | 76 | 1008.0 |
| 20260505202104 | 12 | 25 | 11.3 | 29.0 | 0.00 | 0.00 | 0.00 | 76 | 1007.5 |
| 20260505201605 | 12 | 1 | 14.5 | 27.4 | 0.00 | 0.00 | 0.00 | 76 | 1007.5 |
| 20260505201105 | 12 | 18 | 14.5 | 29.0 | 0.00 | 0.00 | 0.00 | 76 | 1007.4 |
| 20260505200605 | 12 | 24 | 16.1 | 29.0 | 0.00 | 0.00 | 0.00 | 76 | 1007.3 |
| 20260505200105 | 12 | 7 | 11.3 | 25.7 | 0.00 | 0.00 | 0.00 | 77 | 1007.1 |
| 20260505195605 | 12 | 28 | 14.5 | 29.0 | 0.00 | 0.00 | 0.00 | 77 | 1007.4 |
| 20260505195105 | 12 | 37 | 14.5 | 29.0 | 0.00 | 0.00 | 0.00 | 78 | 1007.4 |
| 20260505194605 | 12 | 10 | 12.9 | 27.4 | 0.00 | 0.00 | 0.00 | 79 | 1007.2 |
| 20260505193606 | 12 | 15 | 12.9 | 27.4 | 0.00 | 0.00 | 0.00 | 79 | 1007.3 |
| 20260505193106 | 12 | 359 | 16.1 | 27.4 | 0.00 | 0.00 | 0.00 | 79 | 1007.1 |
| 20260505192605 | 12 | 21 | 9.7 | 22.5 | 0.00 | 0.00 | 0.00 | 80 | 1007.2 |
| 20260505191605 | 12 | 7 | 11.3 | 24.1 | 0.00 | 0.00 | 0.00 | 80 | 1007.1 |
| 20260505191105 | 12 | 23 | 8.0 | 25.7 | 0.00 | 0.00 | 0.00 | 80 | 1007.0 |
| 20260505185605 | 12 | 25 | 14.5 | 29.0 | 0.00 | 0.00 | 0.00 | 82 | 1007.1 |
| 20260505185105 | 12 | 14 | 14.5 | 29.0 | 0.00 | 0.00 | 0.00 | 82 | 1007.1 |
| 20260505184105 | 12 | 3 | 11.3 | 29.0 | 0.00 | 0.00 | 0.00 | 81 | 1006.8 |
| 20260505183105 | 13 | 15 | 11.3 | 27.4 | 0.00 | 0.00 | 0.00 | 80 | 1006.8 |
| 20260505182605 | 13 | 3 | 8.0 | 24.1 | 0.00 | 0.00 | 0.00 | 80 | 1006.8 |
| 20260505181605 | 13 | 14 | 9.7 | 25.7 | 0.00 | 0.00 | 0.00 | 79 | 1006.7 |
| 20260505181105 | 13 | 9 | 11.3 | 25.7 | 0.00 | 0.00 | 0.00 | 79 | 1006.4 |
| 20260505180605 | 13 | 7 | 14.5 | 24.1 | 0.00 | 0.00 | 0.00 | 79 | 1006.3 |
| 20260505180105 | 13 | 16 | 9.7 | 29.0 | 0.00 | 0.00 | 0.00 | 80 | 1006.1 |
| 20260505175605 | 13 | 346 | 16.1 | 29.0 | 0.00 | 0.00 | 0.00 | 80 | 1006.2 |
| 20260505175104 | 13 | 11 | 14.5 | 29.0 | 0.00 | 0.00 | 0.00 | 79 | 1006.1 |
| 20260505174605 | 13 | 33 | 11.3 | 29.0 | 0.00 | 0.00 | 0.00 | 80 | 1005.9 |
| 20260505174104 | 13 | 15 | 11.3 | 29.0 | 0.00 | 0.00 | 0.00 | 80 | 1005.7 |
| 20260505173105 | 13 | 21 | 11.3 | 29.0 | 0.00 | 0.00 | 0.00 | 81 | 1005.9 |
| 20260505172605 | 13 | 16 | 12.9 | 27.4 | 0.00 | 0.00 | 0.00 | 81 | 1005.8 |
| 20260505172105 | 13 | 20 | 11.3 | 25.7 | 0.00 | 0.00 | 0.00 | 81 | 1005.7 |
| 20260505171606 | 13 | 39 | 11.3 | 32.2 | 0.00 | 0.00 | 0.00 | 81 | 1005.7 |
| 20260505171105 | 13 | 345 | 14.5 | 32.2 | 0.00 | 0.00 | 0.00 | 82 | 1005.7 |
| 20260505170105 | 13 | 15 | 16.1 | 32.2 | 0.00 | 0.00 | 0.00 | 82 | 1005.2 |
| 20260505165105 | 13 | 5 | 14.5 | 25.7 | 0.00 | 0.00 | 0.00 | 82 | 1005.2 |
| 20260505164605 | 13 | 25 | 11.3 | 25.7 | 0.00 | 0.00 | 0.00 | 83 | 1005.2 |
| 20260505163106 | 13 | 11 | 14.5 | 32.2 | 0.00 | 0.00 | 0.00 | 83 | 1004.6 |
| 20260505162605 | 13 | 41 | 11.3 | 29.0 | 0.00 | 0.00 | 0.00 | 83 | 1004.5 |
| 20260505162105 | 13 | 60 | 8.0 | 29.0 | 0.00 | 0.00 | 0.00 | 84 | 1004.4 |
| 20260505161106 | 13 | 16 | 8.0 | 32.2 | 0.00 | 0.00 | 0.00 | 84 | 1004.0 |
| 20260505153105 | 15 | 23 | 16.1 | 33.8 | 0.00 | 0.00 | 0.00 | 84 | 1002.7 |
| 20260505152605 | 15 | 17 | 14.5 | 35.4 | 0.00 | 0.00 | 0.00 | 84 | 1002.6 |
| 20260505152105 | 15 | 24 | 17.7 | 35.4 | 0.00 | 0.00 | 0.00 | 84 | 1002.5 |
| 20260505151605 | 16 | 5 | 12.9 | 37.0 | 0.00 | 0.00 | 0.00 | 84 | 1002.4 |
| 20260505151105 | 16 | 18 | 16.1 | 37.0 | 0.00 | 0.00 | 0.00 | 83 | 1002.1 |
| 20260505150105 | 17 | 21 | 14.5 | 32.2 | 0.00 | 0.00 | 0.00 | 82 | 1001.7 |
| 20260505140605 | 22 | 109 | 0.0 | 1.6 | 0.00 | 0.00 | 0.00 | 78 | 1000.2 |
| 20260505124105 | 20 | 43 | 0.0 | 0.0 | 0.00 | 0.00 | 0.00 | 83 | 999.7 |
| 20260505123604 | 20 | 43 | 0.0 | 0.0 | 0.00 | 0.00 | 0.00 | 83 | 999.6 |
| 20260505123105 | 20 | 43 | 0.0 | 0.0 | 0.00 | 0.00 | 0.00 | 83 | 999.7 |
| 20260505122605 | 20 | 43 | 0.0 | 0.0 | 0.00 | 0.00 | 0.00 | 83 | 999.6 |
| 20260505122105 | 20 | 43 | 0.0 | 0.0 | 0.00 | 0.00 | 0.00 | 83 | 999.3 |
| 20260505121605 | 20 | 350 | 0.0 | 4.8 | 0.00 | 0.00 | 0.00 | 82 | 999.3 |
| 20260505121105 | 20 | 49 | 0.0 | 8.0 | 0.00 | 0.00 | 0.00 | 82 | 999.3 |
| 20260505120105 | 20 | 26 | 4.8 | 11.3 | 0.00 | 0.00 | 0.00 | 82 | 999.1 |
| 20260505115605 | 20 | 7 | 1.6 | 8.0 | 0.00 | 0.00 | 0.00 | 82 | 999.1 |
| 20260505115104 | 20 | 2 | 3.2 | 14.5 | 0.00 | 0.00 | 0.00 | 82 | 999.0 |
| 20260505114605 | 20 | 350 | 6.4 | 14.5 | 0.00 | 0.00 | 0.00 | 81 | 998.9 |
| 20260505114105 | 20 | 21 | 4.8 | 19.3 | 0.00 | 0.00 | 0.00 | 81 | 998.6 |
| 20260505113605 | 21 | 227 | 8.0 | 20.9 | 0.00 | 0.00 | 0.00 | 80 | 998.1 |
| 20260505113105 | 21 | 199 | 11.3 | 20.9 | 0.00 | 0.00 | 0.00 | 80 | 997.8 |
| 20260505112105 | 21 | 197 | 14.5 | 29.0 | 0.00 | 0.00 | 0.00 | 79 | 997.5 |
| 20260505111605 | 21 | 203 | 16.1 | 20.9 | 0.00 | 0.00 | 0.00 | 79 | 997.4 |
| 20260505111105 | 21 | 193 | 14.5 | 22.5 | 0.00 | 0.00 | 0.00 | 79 | 997.3 |
| 20260505110605 | 21 | 195 | 16.1 | 32.2 | 0.00 | 0.00 | 0.00 | 78 | 997.4 |
| 20260505110105 | 21 | 187 | 16.1 | 38.6 | 0.00 | 0.00 | 0.00 | 78 | 997.4 |
| 20260505102104 | 22 | 185 | 24.1 | 33.8 | 0.00 | 0.00 | 0.00 | 77 | 996.9 |
| 20260505101605 | 22 | 189 | 22.5 | 32.2 | 0.00 | 0.00 | 0.00 | 77 | 997.0 |
| 20260505101105 | 22 | 190 | 22.5 | 32.2 | 0.00 | 0.00 | 0.00 | 77 | 997.0 |
| 20260505100605 | 22 | 187 | 20.9 | 32.2 | 0.00 | 0.00 | 0.00 | 77 | 997.0 |
| 20260505100105 | 22 | 193 | 20.9 | 33.8 | 0.00 | 0.00 | 0.00 | 77 | 997.0 |
| 20260505095605 | 22 | 193 | 25.7 | 35.4 | 0.00 | 0.00 | 0.00 | 77 | 997.0 |
| 20260505095105 | 22 | 199 | 20.9 | 35.4 | 0.00 | 0.00 | 0.00 | 77 | 996.9 |
| 20260505094604 | 22 | 191 | 22.5 | 32.2 | 0.00 | 0.00 | 0.00 | 78 | 996.9 |
| 20260505094104 | 22 | 190 | 19.3 | 32.2 | 0.00 | 0.00 | 0.00 | 78 | 997.0 |
| 20260505093605 | 22 | 188 | 19.3 | 32.2 | 0.00 | 0.00 | 0.00 | 78 | 997.0 |
| 20260505093104 | 22 | 192 | 20.9 | 38.6 | 0.00 | 0.00 | 0.00 | 77 | 996.9 |
| 20260505092605 | 22 | 185 | 20.9 | 38.6 | 0.00 | 0.00 | 0.00 | 77 | 996.9 |
| 20260505092105 | 22 | 191 | 25.7 | 33.8 | 0.00 | 0.00 | 0.00 | 77 | 996.9 |
| 20260505091605 | 22 | 185 | 22.5 | 33.8 | 0.00 | 0.00 | 0.00 | 77 | 996.8 |
| 20260505091104 | 22 | 186 | 22.5 | 35.4 | 0.00 | 0.00 | 0.00 | 77 | 996.9 |
| 20260505090605 | 22 | 187 | 22.5 | 35.4 | 0.00 | 0.00 | 0.00 | 77 | 997.0 |
| 20260505090105 | 22 | 183 | 22.5 | 33.8 | 0.00 | 0.00 | 0.00 | 78 | 997.1 |
| 20260505085105 | 22 | 182 | 22.5 | 41.8 | 0.00 | 0.00 | 0.00 | 77 | 997.2 |
| 20260505084605 | 22 | 188 | 22.5 | 41.8 | 0.00 | 0.00 | 0.00 | 78 | 997.2 |
| 20260505083604 | 22 | 183 | 22.5 | 33.8 | 0.00 | 0.00 | 0.00 | 78 | 997.3 |
| 20260505083105 | 22 | 182 | 22.5 | 33.8 | 0.00 | 0.00 | 0.00 | 78 | 997.3 |
| 20260505082105 | 22 | 183 | 22.5 | 32.2 | 0.00 | 0.00 | 0.00 | 78 | 997.4 |
| 20260505081605 | 22 | 187 | 22.5 | 32.2 | 0.00 | 0.00 | 0.00 | 78 | 997.5 |
| 20260505081105 | 22 | 185 | 20.9 | 33.8 | 0.00 | 0.00 | 0.00 | 78 | 997.6 |
| 20260505080105 | 22 | 186 | 20.9 | 37.0 | 0.00 | 0.00 | 0.00 | 78 | 997.6 |
| 20260505075604 | 22 | 191 | 22.5 | 35.4 | 0.00 | 0.00 | 0.00 | 78 | 997.5 |
| 20260505075104 | 22 | 187 | 25.7 | 35.4 | 0.00 | 0.00 | 0.00 | 78 | 997.6 |
| 20260505074605 | 22 | 186 | 25.7 | 35.4 | 0.00 | 0.00 | 0.00 | 78 | 997.7 |
| 20260505074104 | 22 | 190 | 22.5 | 33.8 | 0.00 | 0.00 | 0.00 | 78 | 997.8 |
| 20260505073104 | 22 | 185 | 24.1 | 38.6 | 0.00 | 0.00 | 0.00 | 78 | 997.8 |
| 20260505072605 | 22 | 181 | 25.7 | 38.6 | 0.00 | 0.00 | 0.00 | 78 | 997.9 |
| 20260505072105 | 22 | 182 | 22.5 | 37.0 | 0.00 | 0.00 | 0.00 | 78 | 998.0 |
| 20260505071604 | 22 | 185 | 25.7 | 37.0 | 0.00 | 0.00 | 0.00 | 78 | 998.0 |
| 20260505071105 | 22 | 181 | 22.5 | 38.6 | 0.00 | 0.00 | 0.00 | 78 | 998.1 |
| 20260505070605 | 22 | 184 | 22.5 | 38.6 | 0.00 | 0.00 | 0.00 | 77 | 998.2 |
| 20260505070104 | 22 | 182 | 25.7 | 38.6 | 0.00 | 0.00 | 0.00 | 77 | 998.2 |
| 20260505065604 | 22 | 199 | 22.5 | 37.0 | 0.00 | 0.00 | 0.00 | 77 | 998.3 |
| 20260505065104 | 22 | 176 | 22.5 | 37.0 | 0.00 | 0.00 | 0.00 | 77 | 998.4 |
| 20260505064605 | 22 | 183 | 25.7 | 40.2 | 0.00 | 0.00 | 0.00 | 77 | 998.5 |
| 20260505064105 | 22 | 179 | 27.4 | 40.2 | 0.00 | 0.00 | 0.00 | 77 | 998.4 |
| 20260505063605 | 22 | 190 | 25.7 | 40.2 | 0.00 | 0.00 | 0.00 | 77 | 998.5 |
| 20260505063105 | 22 | 179 | 25.7 | 40.2 | 0.00 | 0.00 | 0.00 | 77 | 998.5 |
| 20260505062604 | 22 | 186 | 25.7 | 40.2 | 0.00 | 0.00 | 0.00 | 76 | 998.5 |
| 20260505062104 | 22 | 182 | 22.5 | 37.0 | 0.00 | 0.00 | 0.00 | 76 | 998.5 |
| 20260505061605 | 22 | 179 | 24.1 | 37.0 | 0.00 | 0.00 | 0.00 | 76 | 998.6 |
| 20260505060605 | 22 | 188 | 22.5 | 40.2 | 0.00 | 0.00 | 0.00 | 76 | 998.6 |
| 20260505060106 | 22 | 185 | 24.1 | 40.2 | 0.00 | 0.00 | 0.00 | 76 | 998.7 |
| 20260505055605 | 22 | 181 | 25.7 | 37.0 | 0.00 | 0.00 | 0.00 | 76 | 998.7 |
| 20260505055105 | 22 | 189 | 24.1 | 38.6 | 0.00 | 0.00 | 0.00 | 76 | 998.8 |
| 20260505054605 | 22 | 179 | 22.5 | 38.6 | 0.00 | 0.00 | 0.00 | 76 | 998.9 |
| 20260505054104 | 22 | 183 | 24.1 | 37.0 | 0.00 | 0.00 | 0.00 | 76 | 998.9 |
| 20260505053604 | 22 | 173 | 25.7 | 40.2 | 0.00 | 0.00 | 0.00 | 75 | 999.0 |
| 20260505053105 | 22 | 171 | 22.5 | 40.2 | 0.00 | 0.00 | 0.00 | 75 | 999.0 |
| 20260505052605 | 22 | 177 | 25.7 | 38.6 | 0.00 | 0.00 | 0.00 | 75 | 999.0 |
| 20260505052105 | 22 | 183 | 20.9 | 38.6 | 0.00 | 0.00 | 0.00 | 75 | 999.1 |
| 20260505051605 | 22 | 188 | 20.9 | 38.6 | 0.00 | 0.00 | 0.00 | 75 | 999.1 |
| 20260505050604 | 23 | 175 | 22.5 | 35.4 | 0.00 | 0.00 | 0.00 | 75 | 999.4 |
| 20260505041605 | 23 | 159 | 24.1 | 33.8 | 0.00 | 0.00 | 0.00 | 75 | 999.6 |
| 20260505041104 | 23 | 173 | 17.7 | 37.0 | 0.00 | 0.00 | 0.00 | 74 | 999.6 |
| 20260505040604 | 23 | 178 | 22.5 | 37.0 | 0.00 | 0.00 | 0.00 | 74 | 999.8 |
| 20260505035605 | 23 | 170 | 19.3 | 32.2 | 0.00 | 0.00 | 0.00 | 74 | 999.8 |
| 20260505034605 | 23 | 177 | 22.5 | 37.0 | 0.00 | 0.00 | 0.00 | 73 | 999.7 |
| 20260505033605 | 23 | 175 | 19.3 | 37.0 | 0.00 | 0.00 | 0.00 | 73 | 999.7 |
| 20260505033105 | 23 | 172 | 20.9 | 35.4 | 0.00 | 0.00 | 0.00 | 73 | 999.8 |
| 20260505032104 | 23 | 163 | 25.7 | 38.6 | 0.00 | 0.00 | 0.00 | 72 | 999.6 |
| 20260505031105 | 23 | 173 | 25.7 | 40.2 | 0.00 | 0.00 | 0.00 | 72 | 999.5 |
| 20260505030605 | 23 | 176 | 24.1 | 40.2 | 0.00 | 0.00 | 0.00 | 71 | 999.5 |
| 20260505025605 | 24 | 165 | 24.1 | 40.2 | 0.00 | 0.00 | 0.00 | 71 | 999.4 |
| 20260505025105 | 24 | 164 | 22.5 | 40.2 | 0.00 | 0.00 | 0.00 | 70 | 999.5 |
| 20260505024605 | 24 | 161 | 27.4 | 40.2 | 0.00 | 0.00 | 0.00 | 70 | 999.2 |
| 20260505024104 | 24 | 175 | 24.1 | 37.0 | 0.00 | 0.00 | 0.00 | 70 | 999.1 |
| 20260505022604 | 24 | 165 | 25.7 | 45.1 | 0.00 | 0.00 | 0.00 | 69 | 999.3 |
| 20260505022105 | 24 | 169 | 25.7 | 38.6 | 0.00 | 0.00 | 0.00 | 68 | 999.1 |
| 20260505020605 | 25 | 159 | 27.4 | 40.2 | 0.00 | 0.00 | 0.00 | 67 | 998.8 |
| 20260505015605 | 25 | 172 | 24.1 | 41.8 | 0.00 | 0.00 | 0.00 | 67 | 999.0 |
| 20260505014604 | 25 | 160 | 29.0 | 41.8 | 0.00 | 0.00 | 0.00 | 66 | 999.1 |
| 20260505014104 | 25 | 163 | 27.4 | 37.0 | 0.00 | 0.00 | 0.00 | 66 | 999.0 |
| 20260505013605 | 25 | 156 | 24.1 | 37.0 | 0.00 | 0.00 | 0.00 | 65 | 998.8 |
| 20260505013105 | 25 | 175 | 25.7 | 37.0 | 0.00 | 0.00 | 0.00 | 64 | 998.9 |
| 20260505012605 | 25 | 161 | 22.5 | 37.0 | 0.00 | 0.00 | 0.00 | 64 | 999.1 |
| 20260505010604 | 26 | 172 | 29.0 | 41.8 | 0.00 | 0.00 | 0.00 | 63 | 999.0 |
| 20260505010105 | 26 | 156 | 27.4 | 41.8 | 0.00 | 0.00 | 0.00 | 63 | 999.2 |
| 20260505005605 | 26 | 178 | 24.1 | 41.8 | 0.00 | 0.00 | 0.00 | 63 | 999.3 |
| 20260505004104 | 26 | 158 | 27.4 | 46.7 | 0.00 | 0.00 | 0.00 | 62 | 999.2 |
| 20260505003605 | 26 | 158 | 27.4 | 46.7 | 0.00 | 0.00 | 0.00 | 62 | 999.2 |